Location: Argonnex
(45.9500°N, 6.1333°E)
Time: 04:57:04
(UTC+00:00)

Cosmos 2266 Rocket - Pass Details

Date: 11 August 2024
Orbit: 933 x 1008 km, 82.9° (Epoch: 08 September)

Event Time Altitude Azimuth Distance (km) Brightness Sun altitude
Rises 02:03:25 0° 344° (NNW) 3,601 7.5 -20.9°
Reaches altitude 10° 02:06:03 10° 337° (NNW) 2,653 6.6 -20.7°
Maximum altitude 02:11:33 39° 271° (W) 1,384 4.5 -20.1°
Enters shadow 02:13:03 33° 240° (WSW) 1,516 4.5 -19.9°
